Location: Chateh
(58.6667°N, 118.6000°W)
Time: 19:55:45
(UTC+00:00)

Gurwin Techsat 1B - Pass Details

Date: 09 December 2023
Orbit: 810 x 813 km, 98.9° (Epoch: 21 February)

Event Time Altitude Azimuth Distance (km) Brightness Sun altitude
Rises 13:23:24 0° 17° (NNE) 3,353 11.9 -22.3°
Reaches altitude 10° 13:26:05 10° 5° (N) 2,418 11.0 -22.0°
Enters shadow 13:28:42 22° 339° (NNW) 1,725 10.0 -21.6°
